Notices

What's New in latest Release from April 7th, 2021:

- Updated Glossary, including Speed of Maximum Gust, and Total Hourly Precipitation

- Updated national and regional climate services offices contacts and prices information

- Addition of station inventory lists for 1981-2010, 1971-2000, and 1961-1990 Normals.

If you haven't already, please take our survey and provide feedback about our website: https://eccc.sondage-survey.ca/f/LanguageSelection.aspx?s=442ca660-fcf1-47c0-95a9-59707d6fd709

Hourly Data Report for September 13, 2017

VICTORIA UNIVERSITY CS
BRITISH COLUMBIA

48°27'25.200" N
123°18'16.600" W
60.10 m
1018598
71783
WYJ

Download Data

Hourly Data (September 2017)
Hourly Data Report for September 13, 2017
TIME
LST
Temp Definition
°C
Dew Point Definition
°C
Rel Hum Definition
%
Precip. Amount Definition
mm

Wind Dir Definition
10's deg

Wind Spd Definition
km/h
Visibility Definition
km
Stn Press Definition
kPa
Hmdx Definition


Wind Chill Definition


Weather Definition


00:00 11.0 10.1 94 0.0 29 2   100.74     LegendNANA
01:00 10.9 10.2 96 0.0 31 3   100.73     LegendNANA
02:00 9.9 9.2 96 0.0 32 2   100.74     LegendNANA
03:00 9.5 9.1 97 0.0   0   100.72     LegendNANA
04:00 8.8 8.4 98 0.0 29 1   100.77     LegendNANA
05:00 8.5 8.1 98 0.0 16 1   100.77     LegendNANA
06:00 8.2 8.0 98 0.0   0   100.81     LegendNANA
07:00 10.3 10.1 99 0.0 16 1   100.85     LegendNANA
08:00 12.8 10.7 87 0.0 17 1   100.87     LegendNANA
09:00 15.1 9.4 69 0.0 10 4   100.89     LegendNANA
10:00 16.5 8.9 61 0.0 1 9   100.87     LegendNANA
11:00 16.8 8.8 59 0.0 2 8   100.84     LegendNANA
12:00 17.7 8.9 56 0.0 2 10   100.78     LegendNANA
13:00 18.2 9.5 57 0.0 9 3   100.74     LegendNANA
14:00 18.6 9.9 57 0.0 10 5   100.71     LegendNANA
15:00 18.6 9.8 57 0.0 9 4   100.67     LegendNANA
16:00 18.8 9.8 56 0.0 9 5   100.62     LegendNANA
17:00 18.4 9.7 57 0.0 6 4   100.59     LegendNANA
18:00 16.3 9.0 62 0.0 25 4   100.58     LegendNANA
19:00 13.8 9.0 73 0.0 26 4   100.59     LegendNANA
20:00 13.6 8.6 72 0.0 24 4   100.60     LegendNANA
21:00 12.9 8.4 74 0.0 25 4   100.58     LegendNANA
22:00 12.3 7.7 73 0.0 26 3   100.61     LegendNANA
23:00 10.5 7.3 81 0.0 29 3   100.61     LegendNANA

Notes on Data Quality.

Legend

  • E = Estimated
  • M = Missing
  • NA = Not Available*
  • [empty] = Indicates an unobserved value
Date modified: